When you browse on this site, cookies collect data to enhance your experience and personalize the content and advertising you see.
Visit our Privacy Policy to learn more. By continuing to use the site, you agree to this use of cookies and data.
  • In Czech Republic
  • List of Countries
  • For 7 days
  • Water Temperature
  • Satellite Maps
  • Weather Map
  • Weather Widgets
  • user-avatar
    Login

    Hourly Weather Godowo

    Today, 11 December, Tuesday

    Time Temperature Precipitation Wind Pressure Humidity
    00:00 +1°C° 0.3 mm 6 mps 747 mmHg 79%
    01:00 +2°C° 0.3 mm 6 mps 747 mmHg 78%
    02:00 +2°C° 0.6 mm 6 mps 747 mmHg 79%
    03:00 +2°C° 0.6 mm 6 mps 747 mmHg 80%
    04:00 +2°C° 0.6 mm 5 mps 747 mmHg 81%
    05:00 +2°C° 0.3 mm 5 mps 748 mmHg 81%
    06:00 +2°C° 0.3 mm 5 mps 748 mmHg 82%
    07:00 +1°C° 0.3 mm 5 mps 748 mmHg 82%
    08:00 +1°C° 0.1 mm 5 mps 749 mmHg 81%
    09:00 +1°C° 0.1 mm 5 mps 750 mmHg 80%
    10:00 +1°C° 0.1 mm 5 mps 750 mmHg 79%
    11:00 +2°C° 0.1 mm 6 mps 751 mmHg 78%
    12:00 +2°C° 0.1 mm 6 mps 751 mmHg 76%
    13:00 +2°C° 0.1 mm 6 mps 752 mmHg 75%
    14:00 +2°C° 0.1 mm 5 mps 752 mmHg 77%
    15:00 +1°C° 0.1 mm 5 mps 753 mmHg 80%
    16:00 +1°C° 0.1 mm 4 mps 753 mmHg 82%
    17:00 +1°C° 0 mm 4 mps 754 mmHg 83%
    18:00 +1°C° 0 mm 4 mps 754 mmHg 84%
    19:00 +1°C° 0 mm 4 mps 755 mmHg 85%
    20:00 +1°C° 0 mm 4 mps 755 mmHg 85%
    21:00 +1°C° 0 mm 4 mps 756 mmHg 86%
    22:00 +1°C° 0 mm 4 mps 756 mmHg 87%
    23:00 0°C° 0 mm 4 mps 757 mmHg 88%

    Tomorrow, 12 December, Wednesday

    Time Temperature Precipitation Wind Pressure Humidity
    00:00 +1°C° 0 mm 3 mps 757 mmHg 89%
    01:00 +1°C° 0 mm 3 mps 757 mmHg 90%
    02:00 0°C° 0 mm 3 mps 758 mmHg 91%
    03:00 +1°C° 0 mm 2 mps 758 mmHg 91%
    04:00 +1°C° 0 mm 2 mps 758 mmHg 92%
    05:00 +1°C° 0 mm 2 mps 759 mmHg 91%
    06:00 -1°C° 0 mm 2 mps 759 mmHg 91%
    07:00 +1°C° 0 mm 1 mps 760 mmHg 90%
    08:00 +2°C° 0 mm 1 mps 760 mmHg 88%
    09:00 +2°C° 0 mm 1 mps 760 mmHg 87%
    10:00 +3°C° 0 mm 1 mps 761 mmHg 85%
    11:00 +3°C° 0 mm 1 mps 761 mmHg 84%
    12:00 +3°C° 0 mm 2 mps 761 mmHg 82%
    13:00 +4°C° 0 mm 2 mps 761 mmHg 81%
    14:00 +3°C° 0 mm 2 mps 761 mmHg 84%
    15:00 +2°C° 0 mm 2 mps 761 mmHg 86%
    16:00 +2°C° 0 mm 2 mps 761 mmHg 89%
    17:00 +2°C° 0.1 mm 2 mps 762 mmHg 89%
    18:00 +2°C° 0.1 mm 2 mps 762 mmHg 89%
    19:00 +2°C° 0.1 mm 2 mps 762 mmHg 89%
    20:00 +1°C° 0 mm 2 mps 762 mmHg 90%
    21:00 +1°C° 0 mm 2 mps 762 mmHg 90%
    22:00 +1°C° 0 mm 2 mps 762 mmHg 91%
    23:00 +1°C° 0 mm 2 mps 762 mmHg 91%

    Day after tomorrow, 13 December, Thursday

    Time Temperature Precipitation Wind Pressure Humidity
    00:00 +1°C° 0 mm 2 mps 762 mmHg 91%
    01:00 -1°C° 0 mm 2 mps 762 mmHg 91%
    02:00 -1°C° 0 mm 2 mps 762 mmHg 91%
    03:00 -1°C° 0 mm 2 mps 762 mmHg 91%
    04:00 -1°C° 0 mm 2 mps 762 mmHg 92%
    05:00 -1°C° 0 mm 2 mps 762 mmHg 92%
    06:00 -1°C° 0 mm 2 mps 762 mmHg 92%
    07:00 -1°C° 0 mm 2 mps 762 mmHg 92%
    08:00 -1°C° 0 mm 2 mps 762 mmHg 90%
    09:00 +1°C° 0 mm 2 mps 762 mmHg 89%
    10:00 +1°C° 0 mm 2 mps 762 mmHg 87%
    11:00 +2°C° 0 mm 2 mps 762 mmHg 84%
    12:00 +2°C° 0 mm 2 mps 762 mmHg 81%
    13:00 +3°C° 0 mm 2 mps 762 mmHg 78%
    14:00 +2°C° 0 mm 2 mps 762 mmHg 81%
    15:00 +1°C° 0 mm 2 mps 762 mmHg 83%
    16:00 +1°C° 0 mm 2 mps 762 mmHg 86%
    17:00 +1°C° 0 mm 2 mps 762 mmHg 86%
    18:00 +1°C° 0 mm 2 mps 762 mmHg 86%
    19:00 +1°C° 0 mm 2 mps 762 mmHg 87%
    20:00 +1°C° 0 mm 2 mps 762 mmHg 87%
    21:00 +1°C° 0 mm 2 mps 762 mmHg 86%
    22:00 +1°C° 0 mm 2 mps 762 mmHg 86%
    23:00 +2°C° 0 mm 1 mps 762 mmHg 86%

    14 December, Friday

    Time Temperature Precipitation Wind Pressure Humidity
    00:00 +1°C° 0 mm 1 mps 762 mmHg 87%
    01:00 +1°C° 0 mm 1 mps 762 mmHg 87%
    02:00 +1°C° 0 mm 1 mps 762 mmHg 87%
    03:00 +1°C° 0 mm 1 mps 762 mmHg 87%
    04:00 +1°C° 0 mm 1 mps 762 mmHg 87%
    05:00 +1°C° 0 mm 1 mps 762 mmHg 87%
    06:00 0°C° 0 mm 1 mps 762 mmHg 87%
    07:00 0°C° 0 mm 1 mps 762 mmHg 87%
    08:00 +1°C° 0 mm 1 mps 762 mmHg 85%
    09:00 +1°C° 0 mm 1 mps 762 mmHg 83%
    10:00 -1°C° 0 mm 2 mps 763 mmHg 81%
    11:00 -1°C° 0 mm 2 mps 763 mmHg 78%
    12:00 +1°C° 0 mm 2 mps 763 mmHg 76%
    13:00 +1°C° 0 mm 2 mps 763 mmHg 73%
    14:00 -1°C° 0 mm 2 mps 763 mmHg 75%
    15:00 -1°C° 0 mm 2 mps 763 mmHg 78%
    16:00 +1°C° 0 mm 1 mps 763 mmHg 81%
    17:00 -1°C° 0 mm 2 mps 763 mmHg 82%
    18:00 -2°C° 0 mm 2 mps 763 mmHg 83%
    19:00 -2°C° 0 mm 2 mps 763 mmHg 84%
    20:00 -2°C° 0 mm 2 mps 764 mmHg 85%
    21:00 0°C° 0 mm 1 mps 764 mmHg 86%
    22:00 0°C° 0 mm 1 mps 764 mmHg 87%
    23:00 +1°C° 0.1 mm 1 mps 764 mmHg 87%

    15 December, Saturday

    Time Temperature Precipitation Wind Pressure Humidity
    00:00 +1°C° 0.1 mm 1 mps 764 mmHg 88%
    01:00 +1°C° 0.1 mm 1 mps 764 mmHg 89%
    02:00 +1°C° 0.1 mm 1 mps 764 mmHg 89%
    03:00 +1°C° 0.1 mm 1 mps 764 mmHg 90%
    04:00 +1°C° 0.1 mm 1 mps 764 mmHg 90%
    05:00 +1°C° 0 mm 1 mps 764 mmHg 91%
    06:00 0°C° 0 mm 1 mps 764 mmHg 91%
    07:00 0°C° 0 mm 1 mps 765 mmHg 92%
    08:00 -1°C° 0 mm 2 mps 765 mmHg 90%
    09:00 -1°C° 0 mm 2 mps 765 mmHg 89%
    10:00 -1°C° 0 mm 2 mps 765 mmHg 88%
    11:00 -1°C° 0 mm 2 mps 765 mmHg 86%
    12:00 -1°C° 0 mm 2 mps 765 mmHg 84%
    13:00 +1°C° 0 mm 2 mps 766 mmHg 82%
    14:00 -1°C° 0 mm 2 mps 766 mmHg 84%
    15:00 -1°C° 0 mm 2 mps 766 mmHg 86%
    16:00 +1°C° 0 mm 1 mps 766 mmHg 88%
    17:00 -2°C° 0 mm 2 mps 766 mmHg 89%
    18:00 -2°C° 0 mm 2 mps 766 mmHg 91%
    19:00 -3°C° 0 mm 2 mps 766 mmHg 92%
    20:00 -3°C° 0 mm 2 mps 766 mmHg 92%
    21:00 -4°C° 0 mm 3 mps 766 mmHg 92%
    22:00 -4°C° 0 mm 3 mps 766 mmHg 92%
    23:00 -4°C° 0 mm 3 mps 766 mmHg 91%

    16 December, Sunday

    Time Temperature Precipitation Wind Pressure Humidity
    00:00 -4°C° 0 mm 3 mps 765 mmHg 91%
    01:00 -2°C° 0 mm 3 mps 765 mmHg 91%
    02:00 -4°C° 0 mm 3 mps 765 mmHg 91%
    03:00 -4°C° 0 mm 3 mps 765 mmHg 92%
    04:00 -4°C° 0 mm 3 mps 764 mmHg 92%
    05:00 -4°C° 0 mm 3 mps 764 mmHg 92%
    06:00 -4°C° 0 mm 4 mps 764 mmHg 91%
    07:00 -4°C° 0 mm 4 mps 764 mmHg 91%
    08:00 -4°C° 0 mm 4 mps 763 mmHg 89%
    09:00 -4°C° 0 mm 5 mps 763 mmHg 86%
    10:00 -4°C° 0 mm 5 mps 763 mmHg 84%
    11:00 -4°C° 0 mm 5 mps 763 mmHg 82%
    12:00 -2°C° 0 mm 5 mps 762 mmHg 80%
    13:00 -2°C° 0 mm 5 mps 762 mmHg 78%
    14:00 -2°C° 0 mm 5 mps 762 mmHg 79%
    15:00 -2°C° 0 mm 5 mps 761 mmHg 79%
    16:00 -4°C° 0 mm 5 mps 761 mmHg 79%
    17:00 -4°C° 0 mm 5 mps 761 mmHg 79%
    18:00 -4°C° 0 mm 5 mps 761 mmHg 79%
    19:00 -4°C° 0 mm 6 mps 761 mmHg 79%
    20:00 -4°C° 0 mm 6 mps 760 mmHg 79%
    21:00 -4°C° 0 mm 5 mps 760 mmHg 78%
    22:00 -4°C° 0 mm 5 mps 760 mmHg 78%
    23:00 -4°C° 0 mm 5 mps 760 mmHg 79%
    Show more